Tracking 28792 objects as of 25-Apr-2024
HD Live streaming from Space Station
objects crossing your sky now

COSMOS 2491 DEB

Track COSMOS 2491 DEB now!
10-day predictions


NORAD ID: 45128
Int'l Code: 2013-076Z
Perigee: 783.1 km
Apogee: 823.4 km
Inclination: 81.2 °
Period: 100.8 minutes
Semi major axis: 7174 km
RCS: Unknown
Launch date: December 25, 2013
Source: Commonwealth of Independent States (former USSR) (CIS)
Launch site: PLESETSK MISSILE AND SPACE COMPLEX (PKMTR)

Note: This is SATELLITE DEBRIS
Your satellite tracking list
Your tracking list is empty




NASA's NSSDC Master Catalog

Two Line Element Set (TLE):
1 45128U 13076AA  24116.18532076  .00011773  00000-0  46543-2 0  9996
2 45128  81.2104  78.7652 0028107  42.8266 317.5098 14.28688567220157
Source of the keplerian elements: AFSPC